• In Schweiz
  • Länderverzeichnis
  • Für 7 Tage
  • Wassertemperatur
  • Satellitenkarten
  • Wetterkarte
  • Widgets
  • user-avatar
    Anmelden

    Stündliche Wetter Serdyuky

    Heute, 25 April, Mittwoch

    Zeit Temperatur Niederschläge Wind Luftdruck Luftfeuchtigkeit
    00:00 +10°C° 0 mm 2 m/S 742 mmHg 76%
    01:00 +10°C° 0 mm 2 m/S 742 mmHg 77%
    02:00 +10°C° 0 mm 2 m/S 742 mmHg 77%
    03:00 +10°C° 0 mm 2 m/S 742 mmHg 79%
    04:00 +10°C° 0 mm 2 m/S 742 mmHg 80%
    05:00 +10°C° 0 mm 3 m/S 742 mmHg 82%
    06:00 +11°C° 0 mm 3 m/S 742 mmHg 78%
    07:00 +12°C° 0 mm 3 m/S 742 mmHg 75%
    08:00 +14°C° 0 mm 3 m/S 742 mmHg 71%
    09:00 +15°C° 0 mm 4 m/S 742 mmHg 66%
    10:00 +17°C° 0 mm 4 m/S 742 mmHg 61%
    11:00 +19°C° 0 mm 5 m/S 742 mmHg 55%
    12:00 +19°C° 0,1 mm 5 m/S 742 mmHg 57%
    13:00 +19°C° 0,1 mm 5 m/S 741 mmHg 58%
    14:00 +19°C° 0,1 mm 5 m/S 741 mmHg 60%
    15:00 +20°C° 0 mm 5 m/S 740 mmHg 58%
    16:00 +21°C° 0 mm 5 m/S 740 mmHg 56%
    17:00 +21°C° 0 mm 5 m/S 739 mmHg 53%
    18:00 +20°C° 0,1 mm 4 m/S 739 mmHg 60%
    19:00 +18°C° 0,1 mm 4 m/S 738 mmHg 67%
    20:00 +17°C° 0,1 mm 4 m/S 738 mmHg 74%
    21:00 +17°C° 0,3 mm 4 m/S 738 mmHg 76%
    22:00 +15°C° 0,3 mm 4 m/S 738 mmHg 78%
    23:00 +15°C° 0,3 mm 4 m/S 738 mmHg 81%

    Morgen, 26 April, Donnerstag

    Zeit Temperatur Niederschläge Wind Luftdruck Luftfeuchtigkeit
    00:00 +15°C° 0 mm 4 m/S 738 mmHg 82%
    01:00 +15°C° 0 mm 4 m/S 738 mmHg 84%
    02:00 +14°C° 0 mm 5 m/S 738 mmHg 85%
    03:00 +14°C° 0 mm 4 m/S 739 mmHg 87%
    04:00 +13°C° 0 mm 4 m/S 739 mmHg 88%
    05:00 +12°C° 0 mm 4 m/S 739 mmHg 90%
    06:00 +13°C° 0 mm 5 m/S 740 mmHg 83%
    07:00 +14°C° 0 mm 5 m/S 740 mmHg 75%
    08:00 +14°C° 0 mm 6 m/S 741 mmHg 68%
    09:00 +15°C° 0 mm 6 m/S 741 mmHg 61%
    10:00 +16°C° 0 mm 6 m/S 741 mmHg 54%
    11:00 +17°C° 0 mm 6 m/S 742 mmHg 46%
    12:00 +17°C° 0 mm 6 m/S 742 mmHg 46%
    13:00 +17°C° 0 mm 5 m/S 742 mmHg 46%
    14:00 +16°C° 0 mm 5 m/S 743 mmHg 45%
    15:00 +16°C° 0 mm 5 m/S 743 mmHg 48%
    16:00 +15°C° 0 mm 4 m/S 743 mmHg 50%
    17:00 +16°C° 0 mm 3 m/S 743 mmHg 52%
    18:00 +14°C° 0 mm 3 m/S 743 mmHg 56%
    19:00 +14°C° 0 mm 2 m/S 743 mmHg 59%
    20:00 +13°C° 0 mm 1 m/S 743 mmHg 62%
    21:00 +13°C° 0 mm 1 m/S 743 mmHg 64%
    22:00 +13°C° 0 mm 1 m/S 743 mmHg 65%
    23:00 +12°C° 0 mm 1 m/S 743 mmHg 67%

    übermorgen, 27 April, Freitag

    Zeit Temperatur Niederschläge Wind Luftdruck Luftfeuchtigkeit
    00:00 +12°C° 0 mm 1 m/S 743 mmHg 69%
    01:00 +12°C° 0 mm 2 m/S 743 mmHg 72%
    02:00 +10°C° 0 mm 2 m/S 743 mmHg 74%
    03:00 +10°C° 0,3 mm 2 m/S 743 mmHg 79%
    04:00 +10°C° 0,3 mm 2 m/S 743 mmHg 83%
    05:00 +10°C° 0,3 mm 2 m/S 743 mmHg 87%
    06:00 +10°C° 0,2 mm 2 m/S 743 mmHg 85%
    07:00 +11°C° 0,2 mm 3 m/S 744 mmHg 82%
    08:00 +11°C° 0,2 mm 3 m/S 744 mmHg 79%
    09:00 +12°C° 0,3 mm 4 m/S 744 mmHg 71%
    10:00 +13°C° 0,3 mm 5 m/S 744 mmHg 63%
    11:00 +14°C° 0,3 mm 5 m/S 744 mmHg 55%
    12:00 +15°C° 0,1 mm 6 m/S 744 mmHg 51%
    13:00 +15°C° 0,1 mm 6 m/S 745 mmHg 47%
    14:00 +16°C° 0,1 mm 6 m/S 745 mmHg 43%
    15:00 +16°C° 0 mm 6 m/S 745 mmHg 43%
    16:00 +16°C° 0 mm 5 m/S 745 mmHg 43%
    17:00 +15°C° 0 mm 5 m/S 745 mmHg 43%
    18:00 +14°C° 0 mm 4 m/S 746 mmHg 49%
    19:00 +12°C° 0 mm 3 m/S 746 mmHg 56%
    20:00 +10°C° 0 mm 2 m/S 747 mmHg 62%
    21:00 +10°C° 0 mm 2 m/S 747 mmHg 64%
    22:00 +10°C° 0 mm 1 m/S 747 mmHg 67%
    23:00 +9°C° 0 mm 1 m/S 748 mmHg 69%

    28 April, Samstag

    Zeit Temperatur Niederschläge Wind Luftdruck Luftfeuchtigkeit
    00:00 +9°C° 0 mm 1 m/S 748 mmHg 71%
    01:00 +8°C° 0 mm 1 m/S 748 mmHg 72%
    02:00 +7°C° 0 mm 0 m/S 748 mmHg 73%
    03:00 +8°C° 0 mm 1 m/S 748 mmHg 74%
    04:00 +8°C° 0 mm 1 m/S 748 mmHg 74%
    05:00 +7°C° 0 mm 1 m/S 749 mmHg 75%
    06:00 +8°C° 0 mm 2 m/S 749 mmHg 69%
    07:00 +10°C° 0 mm 2 m/S 749 mmHg 63%
    08:00 +13°C° 0 mm 2 m/S 749 mmHg 57%
    09:00 +15°C° 0 mm 2 m/S 749 mmHg 51%
    10:00 +17°C° 0 mm 3 m/S 749 mmHg 46%
    11:00 +18°C° 0 mm 3 m/S 749 mmHg 41%
    12:00 +19°C° 0 mm 3 m/S 749 mmHg 40%
    13:00 +20°C° 0 mm 3 m/S 748 mmHg 39%
    14:00 +21°C° 0 mm 4 m/S 748 mmHg 38%
    15:00 +21°C° 0 mm 4 m/S 748 mmHg 41%
    16:00 +21°C° 0 mm 4 m/S 747 mmHg 43%
    17:00 +21°C° 0 mm 4 m/S 747 mmHg 46%
    18:00 +19°C° 0 mm 3 m/S 747 mmHg 54%
    19:00 +17°C° 0 mm 3 m/S 747 mmHg 62%
    20:00 +14°C° 0 mm 3 m/S 747 mmHg 70%
    21:00 +14°C° 0 mm 3 m/S 747 mmHg 72%
    22:00 +13°C° 0 mm 3 m/S 747 mmHg 74%
    23:00 +13°C° 0 mm 3 m/S 747 mmHg 75%

    29 April, Sonntag

    Zeit Temperatur Niederschläge Wind Luftdruck Luftfeuchtigkeit
    00:00 +13°C° 0 mm 3 m/S 747 mmHg 77%
    01:00 +12°C° 0 mm 3 m/S 747 mmHg 78%
    02:00 +12°C° 0 mm 3 m/S 747 mmHg 80%
    03:00 +12°C° 0 mm 3 m/S 747 mmHg 79%
    04:00 +12°C° 0 mm 3 m/S 747 mmHg 79%
    05:00 +12°C° 0 mm 3 m/S 747 mmHg 79%
    06:00 +13°C° 0 mm 3 m/S 747 mmHg 75%
    07:00 +14°C° 0 mm 4 m/S 747 mmHg 71%
    08:00 +17°C° 0 mm 4 m/S 747 mmHg 66%
    09:00 +19°C° 0 mm 4 m/S 747 mmHg 62%
    10:00 +21°C° 0 mm 4 m/S 747 mmHg 57%
    11:00 +23°C° 0 mm 4 m/S 747 mmHg 52%
    12:00 +25°C° 0 mm 4 m/S 747 mmHg 49%
    13:00 +25°C° 0 mm 5 m/S 747 mmHg 46%
    14:00 +26°C° 0 mm 5 m/S 746 mmHg 44%
    15:00 +26°C° 0 mm 5 m/S 746 mmHg 44%
    16:00 +26°C° 0 mm 4 m/S 746 mmHg 44%
    17:00 +25°C° 0 mm 4 m/S 746 mmHg 44%
    18:00 +22°C° 0 mm 4 m/S 746 mmHg 50%
    19:00 +20°C° 0 mm 4 m/S 746 mmHg 55%
    20:00 +18°C° 0 mm 3 m/S 746 mmHg 60%
    21:00 +17°C° 0 mm 3 m/S 745 mmHg 62%
    22:00 +16°C° 0 mm 3 m/S 745 mmHg 64%
    23:00 +14°C° 0 mm 3 m/S 745 mmHg 66%

    30 April, Montag

    Zeit Temperatur Niederschläge Wind Luftdruck Luftfeuchtigkeit
    00:00 +14°C° 0 mm 4 m/S 745 mmHg 67%
    01:00 +13°C° 0 mm 4 m/S 745 mmHg 68%
    02:00 +13°C° 0 mm 4 m/S 745 mmHg 69%
    03:00 +12°C° 0 mm 4 m/S 745 mmHg 68%
    04:00 +12°C° 0 mm 4 m/S 744 mmHg 67%
    05:00 +11°C° 0 mm 4 m/S 744 mmHg 66%
    06:00 +13°C° 0 mm 4 m/S 744 mmHg 61%
    07:00 +14°C° 0 mm 5 m/S 744 mmHg 56%
    08:00 +16°C° 0 mm 6 m/S 744 mmHg 52%
    09:00 +17°C° 0 mm 6 m/S 744 mmHg 47%
    10:00 +20°C° 0 mm 6 m/S 744 mmHg 43%
    11:00 +22°C° 0 mm 6 m/S 744 mmHg 39%
    12:00 +23°C° 0 mm 6 m/S 743 mmHg 38%
    13:00 +24°C° 0 mm 6 m/S 743 mmHg 37%
    14:00 +26°C° 0 mm 6 m/S 743 mmHg 35%
    15:00 +24°C° 0 mm 6 m/S 742 mmHg 38%
    16:00 +25°C° 0 mm 5 m/S 742 mmHg 40%
    17:00 +25°C° 0 mm 5 m/S 742 mmHg 42%
    18:00 +22°C° 0 mm 4 m/S 742 mmHg 50%
    19:00 +20°C° 0 mm 4 m/S 742 mmHg 57%
    20:00 +18°C° 0 mm 3 m/S 742 mmHg 64%
    21:00 +18°C° 0 mm 3 m/S 742 mmHg 65%
    22:00 +17°C° 0 mm 4 m/S 742 mmHg 67%
    23:00 +17°C° 0 mm 4 m/S 742 mmHg 68%
    Mehr zeigen